This demonstration page uses our WeatherBlox Daily Observations layout. Learn more.

Left ArrowRight Arrow

Hourly Observations for April 26, 2017

Temp ( °F °C ) Dew Point ( °F °C ) Humidity (%) Winds ( mph kmh ) Pressure ( in mb ) Visibility ( mi km ) Precip ( " mm )
12:53 am 00:53 Cloudy 39 3.9 36 2.2 89 89 ENE 3 6 29.88 1012 10 16 0.00 0.00
1:37 am 01:37 Cloudy 38 3.3 35 1.7 89 89 ESE 6 9 29.88 1012 10 16 0.00 0.00
1:51 am 01:51 Cloudy 37 3 36 2 93 93 ENE 6 9 29.88 1012 10 16 0.00 0.00
1:53 am 01:53 Cloudy 38 3.3 35 1.7 89 89 ENE 7 11 29.86 1011 10 16 0.00 0.00
2:43 am 02:43 Cloudy 38 3.3 36 2.2 93 93 E 7 11 29.88 1012 10 16 0.00 0.03
2:53 am 02:53 Cloudy 38 3.3 36 2.2 93 93 E 8 13 29.85 1011 10 16 0.00 0.03
3:53 am 03:53 Cloudy 38 3.3 36 2.2 93 93 ENE 7 11 29.83 1010 10 16 0.00 0.00
4:53 am 04:53 Cloudy 38 3.3 37 2.8 97 97 ENE 3 6 29.83 1010 10 16 0.00 0.00
5:05 am 05:05 Cloudy 38 3.3 37 2.8 97 97 E 5 7 29.85 1011 10 16 0.00 0.00
5:25 am 05:25 Cloudy 38 3.3 37 2.8 97 97 N 3 6 29.85 1011 10 16 0.00 0.00
5:53 am 05:53 Cloudy 38 3.3 37 2.8 97 97 E 7 11 29.81 1010 10 16 0.00 0.00
6:53 am 06:53 Cloudy 38 3.3 36 2.2 93 93 E 7 11 29.81 1009 10 16 0.00 0.00
7:46 am 07:46 Cloudy 40 4.4 37 2.8 89 89 E 5 7 29.80 1009 10 16 0.00 0.00
7:53 am 07:53 Cloudy 40 4.4 36 2.2 86 86 E 5 7 29.80 1009 10 16 0.00 0.00
8:33 am 08:33 Cloudy 44 6.7 37 2.8 76 76 NE 8 13 29.77 1008 10 16 0.00 0.00
8:53 am 08:53 Mostly Cloudy 45 7.2 37 2.8 74 74 ENE 7 11 29.79 1009 10 16 0.00 0.00
9:53 am 09:53 Cloudy 45 7.2 34 1.1 66 66 E 7 11 29.77 1008 10 16 0.00 0.00
10:53 am 10:53 Cloudy 47 8.3 35 1.7 63 63 VRB 5 7 29.75 1007 10 16 0.00 0.00
11:53 am 11:53 Cloudy 49 9.4 35 1.7 59 59 Calm 29.73 1007 10 16 0.00 0.00
12:53 pm 12:53 Cloudy 50 10 35 1.7 57 57 N 5 7 29.71 1006 10 16 0.00 0.00
1:53 pm 13:53 Mostly Cloudy 53 11.7 36 2.2 52 52 NW 6 9 29.68 1005 10 16 0.00 0.00
2:53 pm 14:53 Cloudy 54 12.2 36 2.2 51 51 NNE 6 9 29.66 1005 10 16 0.00 0.00
3:53 pm 15:53 Partly Cloudy 54 12.2 35 1.7 49 49 WNW 5 7 29.65 1004 10 16 0.00 0.00
4:53 pm 16:53 Cloudy 51 10.6 37 2.8 59 59 S 13 20 29.64 1004 10 16 0.00 0.00
5:18 pm 17:18 Cloudy with Light Rain 46 8 43 6 87 87 SSW 12 19 29.65 1004 9 14 0.00 0.00
5:53 pm 17:53 Cloudy 48 8.9 40 4.4 74 74 Calm 29.65 1004 10 16 0.02 0.51
6:53 pm 18:53 Mostly Cloudy 50 10 40 4.4 68 68 ENE 7 11 29.64 1004 10 16 0.00 0.00
7:53 pm 19:53 Cloudy 48 8.9 40 4.4 74 74 E 9 15 29.64 1004 10 16 0.00 0.00
8:53 pm 20:53 Cloudy 46 7.8 39 3.9 77 77 ENE 10 17 29.62 1003 10 16 0.00 0.00
9:53 pm 21:53 Cloudy 45 7.2 39 3.9 80 80 E 6 9 29.64 1004 10 16 0.00 0.00
10:53 pm 22:53 Cloudy 44 6.7 39 3.9 83 83 ENE 6 9 29.62 1003 10 16 0.00 0.00
11:53 pm 23:53 Cloudy 44 6.7 38 3.3 79 79 NNE 5 7 29.61 1003 10 16 0.00 0.00

Powered by AerisWeather